RH
41 40 45 57 68 72 75 78 80 80 81 83 83 81 83 86 87 87 85 83 82 80 77 74 71 69 68 69 77 80 79 84 85 81 79 77 76 77 77 76 75 73 72 73 74 75 73 70 70 71 71 71
37 38 39 43 48 54 61 66 68 69 71 77 80 79 81 84 86 85 83 81 81 82 80 78 75 73 72 71 75 78 78 80 82 81 81 81 82 84 85 84 82 79 77 78 79 80 75 71 70 71 72 72
33 36 37 38 39 42 47 50 53 58 66 72 75 76 78 80 81 80 79 76 76 78 78 76 74 74 74 74 76 81 81 80 82 83 83 84 85 86 87 87 86 83 81 83 84 81 75 72 72 72 71 72
28 31 33 35 36 39 43 46 49 55 63 66 67 72 75 76 76 74 72 71 74 76 75 71 68 70 72 72 73 79 82 81 82 83 84 84 85 86 87 87 85 84 83 86 87 84 79 76 77 76 75 74
24 27 30 33 36 38 42 47 52 54 57 61 65 68 69 72 74 69 64 67 75 77 74 69 66 67 69 67 65 69 76 78 81 82 82 82 83 84 85 85 83 82 82 84 87 85 81 80 81 80 78 76
22 26 30 33 36 39 43 48 54 57 59 61 63 61 63 70 66 56 54 62 72 75 71 69 67 68 67 64 59 59 65 70 75 79 80 80 81 81 81 81 81 81 81 81 81 80 78 78 78 78 77 74
21 25 30 33 37 40 44 47 50 55 59 59 57 55 60 66 60 49 47 55 67 70 69 68 64 64 63 61 58 57 60 63 67 71 74 77 77 78 78 79 80 79 77 76 74 73 71 70 70 70 68 66
23 25 28 34 38 40 44 50 54 56 59 61 61 62 67 70 71 66 58 58 67 68 65 62 58 54 52 51 51 50 55 60 61 62 66 70 72 74 74 75 76 76 75 74 71 68 65 62 59 55 51 48
27 25 25 30 35 37 43 56 65 65 63 65 64 63 68 71 73 75 69 64 67 69 64 57 53 49 44 42 41 41 46 53 55 54 55 58 63 68 69 69 67 65 63 60 56 51 47 44 40 34 29 25
31 29 27 27 30 36 48 62 70 70 65 63 59 52 48 46 45 46 46 42 40 42 40 35 33 33 30 28 27 29 32 34 34 32 30 30 34 40 44 45 43 41 39 35 32 27 24 22 21 18 16 15
34 34 32 30 31 39 55 69 73 74 71 68 63 54 42 33 27 23 20 18 16 15 16 14 14 14 13 13 13 16 16 14 13 12 12 12 13 15 17 18 19 19 19 19 18 16 16 15 15 14 14 14
38 35 36 35 35 41 54 66 70 71 72 70 65 56 46 36 28 23 19 16 15 13 13 13 12 12 13 13 14 14 14 14 15 14 15 15 15 15 15 15 15 15 16 16 16 16 17 17 17 17 17 18
56 44 38 38 37 40 47 54 56 58 61 60 55 48 42 35 29 25 22 20 19 18 17 17 18 19 19 19 20 20 21 21 21 21 22 22 22 22 21 21 21 21 21 21 21 21 21 22 22 22 22 22
85 71 57 48 43 41 40 42 42 43 46 45 43 40 36 33 30 27 26 24 23 22 22 22 23 25 25 26 27 27 26 27 26 26 27 27 27 27 26 26 26 26 26 26 26 26 25 26 25 26 26 26
89 83 75 69 58 48 40 36 36 36 36 37 37 36 34 32 31 30 29 28 27 28 28 28 29 31 32 31 32 33 33 33 33 32 31 31 31 32 31 31 31 31 31 31 31 30 30 30 30 30 30 30
71 67 71 79 73 61 47 37 35 34 33 34 34 34 33 33 32 32 32 33 33 35 36 36 36 36 36 36 35 36 37 37 37 37 36 35 34 34 35 35 35 35 35 36 36 35 35 35 35 35 35 35
74 67 64 68 64 59 50 40 37 35 34 34 34 34 34 34 35 36 37 38 40 41 42 42 41 40 39 39 39 39 39 39 39 39 38 38 37 37 37 37 38 38 39 40 41 41 41 41 41 40 40 41
77 71 61 55 51 50 46 42 40 38 37 37 36 36 36 37 38 39 41 43 45 45 44 44 44 44 43 43 43 42 42 41 41 41 40 40 40 39 40 41 42 43 43 44 45 46 47 48 48 48 47 47
69 64 59 56 52 51 48 45 43 41 41 40 40 39 39 40 42 45 48 49 49 49 48 48 47 47 47 48 47 46 45 44 43 43 43 42 42 43 44 46 47 48 49 50 51 52 53 55 56 57 55 54
68 64 60 59 57 55 53 52 50 48 47 45 44 43 43 45 48 50 54 56 56 55 55 53 52 51 51 51 50 48 46 45 46 46 47 47 47 48 49 50 52 53 54 55 56 57 58 60 63 64 63 61
70 67 63 61 60 59 57 55 55 55 53 53 51 50 50 52 54 55 57 59 59 60 60 58 57 55 54 54 53 51 50 50 51 52 54 55 55 55 56 56 57 57 58 58 59 60 60 62 63 66 68 71
72 69 66 64 64 63 60 56 55 55 55 56 56 57 58 59 60 61 63 65 66 67 66 63 61 60 60 61 59 59 61 62 62 61 62 63 63 63 63 62 61 61 61 61 62 63 62 61 61 64 71 78
74 71 69 68 67 68 66 61 58 57 57 58 59 61 63 66 67 67 69 71 73 74 71 69 69 70 74 72 69 70 73 74 73 71 70 71 71 69 67 66 64 64 63 63 63 64 64 62 61 62 67 73
77 74 72 72 71 72 71 69 66 64 63 64 63 64 67 70 71 73 73 71 73 74 72 76 82 85 87 83 81 82 84 85 83 79 76 74 73 71 69 68 66 66 66 65 65 66 67 66 65 64 64 67
75 73 72 73 73 74 74 74 74 74 73 73 73 73 73 73 78 89 89 79 78 81 80 85 91 95 95 91 91 94 93 92 89 85 80 76 73 70 69 68 68 68 68 69 69 70 70 69 69 69 69 69
74 75 73 73 75 76 77 79 79 81 80 81 82 81 82 80 84 97 100 91 92 96 95 95 97 98 98 97 96 98 97 96 94 90 86 82 77 73 71 70 70 71 71 71 72 73 73 72 72 72 73 74
83 86 85 83 84 84 86 87 85 84 83 82 83 83 86 88 89 96 100 99 99 98 96 96 98 99 100 99 98 98 98 98 96 91 87 84 81 80 79 78 77 77 77 77 78 78 80 81 80 78 77 78
95 97 98 95 94 92 91 91 89 87 85 83 83 83 86 89 90 92 94 94 93 92 93 94 97 99 100 100 99 100 99 96 92 86 81 80 80 81 82 83 83 84 85 85 83 81 81 82 84 85 82 78
100 100 102 101 98 95 91 92 94 94 94 90 88 88 90 91 91 91 91 91 91 91 92 91 93 97 96 92 90 90 89 87 83 80 79 80 81 81 81 83 86 89 89 87 84 80 79 78 80 84 83 80
96 97 99 99 97 96 96 97 99 99 99 98 96 96 97 98 98 96 95 93 92 92 92 94 95 94 92 88 85 84 84 83 82 82 85 86 87 88 87 89 90 91 89 86 83 80 78 77 77 79 81 84
97 98 98 99 99 101 101 101 101 100 99 99 100 100 100 100 99 98 97 96 96 97 99 100 96 89 87 87 87 87 85 84 84 85 88 91 93 96 96 95 94 90 87 84 82 80 79 78 77 78 80 83
Wind_Speed
35 36 36 36 37 37 37 37 37 37 37 37 37 36 35 34 34 34 34 34 34 34 35 35 36 36 36 34 33 34 36 36 37 38 39 39 39 39 39 39 40 41 41 42 42 42 42 43 44 43 43 43
35 35 36 36 37 38 38 39 39 40 40 39 39 38 38 37 38 38 38 38 38 37 37 37 38 38 38 37 36 36 37 37 37 38 39 39 39 39 39 40 40 41 41 41 41 42 42 43 44 43 44 44
36 36 36 36 36 37 38 39 39 40 40 40 41 40 40 40 41 41 41 41 41 41 40 40 41 41 41 40 39 38 39 39 39 40 40 40 40 41 41 42 42 43 43 42 43 44 44 44 44 45 45 45
37 37 37 36 36 36 36 37 38 39 40 41 41 41 41 41 42 43 43 43 43 43 42 43 43 43 43 43 42 41 41 41 42 42 42 42 42 43 44 44 45 45 45 45 45 46 45 45 45 46 46 47
38 38 38 37 37 36 36 37 38 39 40 41 41 41 41 41 42 43 42 41 41 41 42 43 43 43 43 44 44 44 43 44 44 44 44 44 44 44 45 45 46 46 46 46 47 47 47 46 47 47 48 48
39 38 38 38 38 37 37 37 37 38 38 39 40 40 40 40 42 42 40 38 38 39 40 41 42 42 43 44 45 46 46 46 46 45 45 45 45 45 45 46 46 47 47 47 48 48 48 48 48 49 49 50
40 39 39 39 39 38 38 38 38 38 38 38 39 39 39 40 41 42 40 38 37 38 39 41 42 42 43 44 45 45 46 47 47 47 47 47 47 47 48 48 48 49 49 50 50 50 50 50 50 51 52 52
41 41 41 40 40 40 39 39 39 39 39 38 39 39 39 40 41 42 40 38 38 40 41 42 43 44 44 44 44 44 44 46 47 48 49 49 50 50 51 51 51 52 52 52 53 53 53 53 53 53 53 53
42 42 42 42 42 41 40 39 40 40 40 39 40 40 40 41 42 43 42 41 41 42 42 43 44 45 45 46 46 45 46 46 47 48 49 50 51 52 52 53 53 53 53 54 54 54 54 54 53 53 53 53
44 44 44 44 43 43 42 41 41 41 41 41 41 41 42 43 44 45 45 44 44 44 44 45 45 46 46 47 47 47 47 48 49 49 50 51 51 52 52 52 53 53 53 53 53 53 53 53 52 52 52 52
46 45 45 45 45 44 43 43 43 43 43 43 43 43 44 45 45 46 46 46 46 45 46 46 46 46 46 46 46 47 47 48 49 49 49 50 50 51 51 52 52 53 53 53 53 53 53 53 53 53 52 52
47 47 47 47 46 44 43 44 46 46 45 45 45 45 45 46 47 47 47 47 47 47 47 47 47 47 47 47 47 47 48 48 49 49 49 50 50 51 52 52 53 53 53 54 54 54 55 55 54 54 54 54
47 49 49 48 47 45 44 44 46 46 45 45 46 46 46 47 47 47 48 48 48 48 49 49 48 48 48 48 49 49 50 50 50 50 50 51 51 52 53 53 53 54 54 55 55 55 56 55 55 55 55 55
43 46 46 46 46 45 44 45 46 46 45 45 45 45 46 47 47 48 48 48 49 49 50 50 49 49 49 49 49 50 51 52 52 52 52 52 52 53 53 53 54 54 54 55 55 56 56 56 55 55 55 55
43 44 42 42 44 45 45 46 46 47 46 45 45 46 47 47 48 48 49 49 49 49 50 51 51 51 51 51 52 52 52 53 53 53 54 54 54 54 54 54 54 54 54 54 55 55 55 55 55 55 55 54
49 49 46 44 47 48 47 47 48 48 47 47 47 47 48 48 49 49 49 49 49 49 49 51 52 52 53 53 54 54 54 54 54 55 55 55 55 55 55 55 55 54 54 54 54 54 54 55 54 54 54 54
50 51 50 49 51 51 50 50 50 50 50 49 49 50 50 50 50 50 50 50 50 50 50 51 53 54 55 55 55 55 56 56 56 56 56 56 57 57 56 56 56 56 55 54 54 54 54 54 55 54 54 54
52 52 52 52 53 52 52 52 52 52 52 51 51 52 52 51 51 51 52 51 51 52 53 54 54 55 56 56 56 56 57 57 57 58 58 58 58 57 57 57 56 56 56 55 55 55 54 54 55 55 54 54
54 54 54 53 53 53 53 54 54 54 54 54 54 54 53 53 53 53 53 53 53 54 54 55 56 57 57 57 57 57 57 58 58 58 59 59 58 58 57 57 57 56 56 56 55 55 55 55 55 55 55 55
53 54 54 54 54 54 54 55 55 55 55 55 55 55 55 54 54 54 54 54 55 55 55 56 57 57 57 57 58 58 58 59 59 59 59 59 59 58 58 57 57 57 56 56 56 56 56 56 56 55 55 55
52 53 55 55 54 54 55 56 56 56 56 56 56 57 56 56 56 56 56 56 56 56 56 56 57 57 57 58 58 58 58 58 58 59 59 59 59 58 58 58 58 57 57 57 57 56 56 56 57 56 56 56
52 53 54 55 55 55 57 57 57 57 57 57 58 58 57 57 57 58 58 58 57 56 56 56 57 57 57 57 57 57 57 58 58 59 59 58 59 58 58 58 58 58 58 58 58 57 57 57 57 58 58 58
52 54 55 56 56 56 57 58 58 59 59 59 60 60 59 59 59 59 60 58 57 56 56 56 56 56 56 56 57 57 57 58 59 59 59 59 59 59 59 59 59 60 59 59 59 58 58 58 58 59 59 59
54 55 56 58 58 58 59 60 60 60 61 61 61 62 61 61 60 60 61 59 57 57 56 55 55 55 55 56 56 57 58 59 60 60 60 60 60 60 60 60 60 60 60 60 59 59 59 59 59 60 60 60
57 58 59 60 60 61 61 61 61 61 61 61 61 61 62 61 58 59 62 61 58 57 56 54 55 55 56 57 57 58 59 60 61 62 62 62 62 61 61 61 61 60 60 60 60 60 60 60 60 61 61 61
60 60 61 62 62 63 62 62 62 61 61 60 59 59 59 58 55 56 62 63 59 57 56 56 56 57 57 58 58 59 60 61 61 62 62 62 62 62 62 61 61 60 60 60 60 61 62 62 62 63 63 63
62 62 61 61 62 62 62 63 63 63 62 61 60 59 58 57 55 56 59 60 59 58 58 58 58 57 58 59 60 60 60 60 61 62 62 62 62 62 61 61 61 61 61 61 62 63 64 65 65 66 66 66
62 62 62 62 62 62 61 61 61 61 61 61 60 59 59 58 58 57 58 60 61 60 60 60 60 60 60 61 61 61 62 63 64 64 64 63 62 62 62 62 62 62 63 64 65 66 66 67 67 68 68 68
61 61 61 61 60 59 58 58 58 58 58 58 57 58 58 59 60 60 60 61 61 60 61 62 63 63 64 65 64 64 65 65 66 65 65 64 64 64 64 64 64 65 66 67 68 68 68 68 68 69 69 69
57 59 59 58 57 56 56 57 57 57 56 56 56 57 58 59 59 60 60 60 61 62 64 65 66 66 66 66 66 66 66 66 66 66 66 67 67 67 66 67 67 67 68 69 69 68 68 68 68 69 69 69
54 56 57 57 56 56 57 58 58 57 57 58 59 60 60 60 60 61 61 63 65 67 67 68 69 69 67 66 65 65 66 67 67 67 68 69 69 70 70 70 70 70 69 69 69 69 69 69 70 70 70 70
Wind_Direction
246 246 247 247 248 249 250 251 252 253 253 254 255 256 257 257 258 259 259 260 260 261 261 261 260 260 260 259 259 260 259 259 259 260 262 263 264 265 266 267 267 267 267 267 267 267 267 267 268 268 269 270
248 248 248 248 249 250 251 252 253 254 255 256 257 257 257 257 257 258 259 260 262 262 262 262 263 263 262 261 259 259 259 258 259 260 261 262 264 265 266 267 267 267 267 267 267 267 267 268 269 269 270 271
249 250 250 250 251 251 252 253 254 255 256 256 257 257 258 258 258 258 259 260 261 261 261 262 263 263 263 262 261 261 260 260 260 261 262 263 264 265 266 267 268 268 268 268 268 268 268 269 270 271 271 272
249 250 251 252 253 253 253 254 254 255 254 255 256 256 257 258 259 259 259 259 259 259 260 261 262 262 262 263 263 263 262 262 262 262 263 264 265 266 267 269 269 269 269 269 269 269 270 270 272 273 273 274
250 251 251 252 253 254 255 255 255 255 255 255 256 256 257 257 259 260 259 259 258 259 260 261 261 261 261 262 263 263 264 263 263 264 264 265 266 267 268 270 270 271 270 271 271 272 271 272 274 275 275 275
252 253 253 253 253 254 255 255 256 257 257 256 257 257 257 258 260 262 261 261 261 261 262 263 263 262 262 263 263 264 264 264 265 266 267 267 267 268 269 270 271 271 272 272 273 273 273 274 275 276 277 277
254 254 255 255 254 254 254 255 256 257 258 258 259 259 258 258 261 264 264 263 264 264 264 265 265 264 264 264 265 265 265 265 265 266 267 268 269 269 270 271 272 272 273 274 274 275 276 276 277 278 279 279
255 255 255 255 256 255 255 256 258 258 259 260 262 262 261 261 263 265 265 264 265 266 266 266 266 266 266 266 267 267 268 268 267 267 268 268 269 270 271 272 273 274 275 276 277 278 278 279 279 280 280 280
254 255 255 255 255 256 256 256 258 259 259 261 263 264 264 264 265 266 266 266 265 265 265 266 266 267 268 269 269 270 270 270 270 270 270 270 271 271 272 273 274 275 276 276 277 277 278 278 278 279 279 279
255 256 256 255 256 256 256 256 257 259 260 261 262 264 265 265 266 266 267 266 265 263 263 264 264 265 267 268 269 270 270 270 270 271 271 271 271 272 273 274 275 275 276 276 276 277 277 277 277 277 278 278
256 256 257 256 256 256 256 257 257 258 260 262 263 265 266 266 266 266 266 266 266 265 265 265 265 266 267 268 268 269 269 269 270 271 272 272 273 273 273 274 274 275 276 276 277 277 278 278 278 278 278 278
257 256 257 257 257 257 257 258 258 259 260 262 263 264 265 265 266 266 267 267 268 268 268 268 269 270 270 271 271 271 271 272 272 272 273 274 274 274 274 275 275 276 276 277 277 278 278 278 279 279 279 279
257 256 256 256 257 258 258 258 259 260 261 261 261 262 263 264 265 266 267 268 269 270 270 271 272 272 272 273 273 273 274 274 273 273 273 274 274 274 275 275 276 276 277 277 277 278 278 278 279 279 279 279
253 254 254 255 257 258 258 258 259 259 260 260 260 261 262 263 265 266 267 268 269 270 271 272 273 274 274 274 274 274 274 274 275 274 274 274 274 275 275 275 276 276 276 277 277 277 277 277 277 278 278 278
250 255 255 256 257 257 257 257 258 258 259 259 260 261 262 263 264 265 267 268 269 270 272 273 273 274 274 274 274 275 275 275 276 276 276 276 276 276 276 276 276 276 276 276 276 276 276 276 276 276 276 276
252 255 256 257 258 257 258 258 258 259 259 259 260 261 262 263 264 266 267 269 270 271 272 272 273 273 274 274 275 275 276 276 277 277 278 278 278 278 278 278 277 277 276 276 276 276 276 276 276 276 275 275
252 254 256 258 260 259 260 260 260 259 259 260 260 261 262 264 265 267 268 269 270 271 271 272 273 273 274 274 275 276 276 277 278 278 278 279 279 279 279 279 278 278 277 277 276 276 276 276 276 276 276 276
252 255 257 258 259 260 260 260 260 260 260 260 261 262 263 265 266 267 268 269 269 270 271 271 272 273 274 275 276 276 277 278 278 278 278 279 279 279 278 278 278 278 278 278 277 277 277 276 276 276 276 276
253 255 257 256 257 258 259 259 260 261 261 261 262 262 264 265 266 267 268 268 269 270 270 271 272 273 274 275 276 277 277 278 278 278 278 278 278 277 277 277 277 277 277 277 277 277 277 276 276 275 275 275
255 256 256 257 257 258 258 259 260 261 262 263 263 264 264 265 265 266 267 268 268 269 270 270 272 273 274 274 275 276 276 276 277 277 277 277 277 277 277 277 277 276 276 276 276 276 276 276 275 275 275 276
258 258 259 260 260 261 261 261 262 262 263 264 265 265 266 265 266 266 267 267 268 269 270 271 272 273 274 274 274 275 275 275 275 275 275 276 276 276 276 276 276 276 276 276 276 276 276 275 275 275 275 276
260 261 261 262 263 263 264 264 264 265 265 265 265 266 266 266 266 266 267 268 269 270 271 272 272 273 273 273 274 274 274 274 274 274 274 274 274 275 275 275 275 275 275 275 275 275 276 276 276 276 275 276
262 263 263 263 263 263 264 265 265 265 265 265 266 266 266 266 266 267 267 268 270 270 271 271 271 272 272 272 273 274 274 274 274 274 274 274 274 274 274 274 274 274 274 274 275 275 275 275 275 275 275 275
264 265 265 264 264 263 263 263 264 264 265 265 266 266 266 267 268 269 270 270 271 271 270 270 271 271 272 272 273 274 274 274 274 274 274 274 274 273 273 273 274 274 274 275 275 275 275 275 275 275 275 275
264 265 265 265 265 264 264 264 264 264 265 265 266 267 268 269 270 271 272 272 273 273 272 271 272 272 273 274 274 275 275 274 274 274 274 274 274 274 274 274 274 274 275 275 276 276 276 277 276 276 276 275
262 262 263 264 264 265 265 265 265 265 265 266 266 267 268 269 267 265 267 270 272 273 272 272 273 274 275 275 275 275 275 275 275 274 274 274 275 275 276 276 276 276 276 276 276 277 277 278 277 277 276 276
260 261 261 262 263 263 264 264 264 264 264 265 265 265 266 266 265 262 263 267 269 270 271 272 273 274 276 276 275 274 274 273 273 273 274 274 275 276 276 277 277 277 277 277 277 277 277 277 277 276 276 275
260 260 261 261 261 261 262 262 262 263 264 264 264 264 264 265 264 263 263 265 268 270 271 272 272 273 273 273 273 272 271 271 272 273 274 275 276 276 276 276 276 276 277 277 276 276 276 276 276 276 276 275
259 260 261 262 262 262 261 261 261 262 263 264 264 265 265 265 265 265 266 267 269 271 272 274 274 273 272 272 272 272 272 273 274 275 276 276 276 276 276 275 275 275 275 275 275 275 275 275 275 275 276 276
259 258 258 258 260 261 261 261 261 261 263 265 266 267 267 267 267 267 268 269 270 272 274 274 275 275 273 274 274 274 274 274 275 275 275 275 275 275 275 275 275 275 275 275 275 275 275 275 275 276 276 277
258 257 256 256 257 260 262 263 263 263 265 267 267 268 268 268 268 269 269 270 271 271 271 272 273 273 272 272 273 273 273 273 274 275 275 275 276 276 276 276 276 275 275 274 275 275 276 276 276 276 277 277